User: anonymous   Login
Location: Unspecified
(0.0000°N, 0.0000°E)
Time: 13:44:47
(UTC+00:00)
Language:

MAST - Orbit

View from above orbital plane
View from above orbital plane
View from above satellite
View from above satellite

Ground track
Ground track

The orbit data is extracted from the following two-line orbital elements,

1 31126U 07012K   17114.91342430 +.00000305 +00000-0 +75436-4 0  9990
2 31126 098.0571 067.2064 0090060 344.5824 015.2634 14.56514868532071
Epoch (UTC): 24 April 2017 21:55:19
Eccentricity: 0.0090060
inclination: 98.0571°
perigee height: 640 km
apogee height: 768 km
right ascension of ascending node: 67.2064°
argument of perigee: 344.5824°
revolutions per day: 14.56514868
mean anomaly at epoch: 15.2634°
orbit number at epoch: 53207

The dashed part of the orbit path shows where the satellite is in the earth's shadow,  

DLR